This is the latest recevied weather packets stored in our database for station/object N4MGC. If no packets are shown the sender has not sent any weather packets the latest 10 day(s).
| Time | Temp. | Humidity | Pressure | Rain* | Wind** | Luminosity | Snow |
|---|---|---|---|---|---|---|---|
| 1777614343 | 13.33° C | 85% | 1014.2 hPa | 0 mm | - | 0 W/m² | - |
| 1777614038 | 12.78° C | 88% | 1014.3 hPa | 0 mm | - | 0 W/m² | - |
| 1777613733 | 12.78° C | 91% | 1014.1 hPa | 0 mm | - | 0 W/m² | - |
| 1777613432 | 12.78° C | 91% | 1014.1 hPa | 0 mm | - | 0 W/m² | - |
| 1777613128 | 12.78° C | 92% | 1014.2 hPa | 0 mm | - | 0 W/m² | - |
| 1777612824 | 12.78° C | 92% | 1013.7 hPa | 0 mm | - | 0 W/m² | - |
| 1777612521 | 12.78° C | 88% | 1013.8 hPa | 0 mm | - | 0 W/m² | - |
| 1777612216 | 13.33° C | 87% | 1014.1 hPa | 0 mm | - | 0 W/m² | - |
| 1777611911 | 13.33° C | 88% | 1014 hPa | 0 mm | - | 0 W/m² | - |
| 1777611607 | 12.78° C | 89% | 1014.1 hPa | 0 mm | - | 0 W/m² | - |
| 1777611304 | 12.78° C | 90% | 1013.9 hPa | 0 mm | - | 0 W/m² | - |
| 1777611001 | 13.33° C | 92% | 1013.8 hPa | 0 mm | - | 0 W/m² | - |
| 1777610696 | 13.33° C | 92% | 1013.8 hPa | 0 mm | - | 0 W/m² | - |
| 1777610395 | 13.33° C | 91% | 1014 hPa | 0 mm | - | 0 W/m² | - |
| 1777610091 | 13.33° C | 92% | 1013.9 hPa | 0 mm | - | 0 W/m² | - |
| 1777609789 | 13.33° C | 91% | 1013.7 hPa | 0 mm | - | 0 W/m² | - |
| 1777609485 | 13.33° C | 91% | 1014.1 hPa | 0 mm | - | 0 W/m² | - |
| 1777609183 | 13.33° C | 89% | 1014.1 hPa | 0 mm | - | 0 W/m² | - |
| 1777608880 | 13.33° C | 91% | 1014 hPa | 0 mm | - | 0 W/m² | - |
| 1777608576 | 13.33° C | 92% | 1014.2 hPa | 0 mm | - | 0 W/m² | - |
| 1777608274 | 13.89° C | 91% | 1014.1 hPa | 0 mm | - | 0 W/m² | - |
| 1777607971 | 13.33° C | 88% | 1014.1 hPa | 0 mm | - | 0 W/m² | - |
| 1777607667 | 13.89° C | 90% | 1014.3 hPa | 0 mm | - | 0 W/m² | - |
| 1777607364 | 13.89° C | 91% | 1014.2 hPa | 0 mm | - | 0 W/m² | - |
| 1777607060 | 13.89° C | 89% | 1014.5 hPa | 0 mm | - | 0 W/m² | - |
* Rain latest hour (hover to see other rain measurements)
** Current wind speed in m/s (hover to see current wind gust speed)